Time,TemperatureF,DewpointF,PressureIn,WindDirection,WindDirectionDegrees,WindSpeedMPH,WindSpeedGustMPH,Humidity,HourlyPrecipIn,Conditions,Clouds,dailyrainin,SoftwareType,DateUTC
2013-05-12 00:01:00,53.7,49.0,30.02,WNW,301,0.0,0.0,84,0.00,,,0.00,Wunderground v.1.13,2013-05-12 04:01:00,
2013-05-12 00:02:00,53.6,48.9,30.02,WNW,301,0.0,0.0,84,0.00,,,0.00,Wunderground v.1.13,2013-05-12 04:02:00,
2013-05-12 00:03:00,53.6,48.9,30.02,WNW,301,0.0,0.0,84,0.00,,,0.00,Wunderground v.1.13,2013-05-12 04:03:00,
2013-05-12 00:07:00,53.3,48.9,30.02,WNW,301,0.0,0.0,85,0.00,,,0.00,Wunderground v.1.13,2013-05-12 04:07:00,
2013-05-12 00:13:00,52.9,48.8,30.02,WNW,301,0.0,0.0,86,0.00,,,0.00,Wunderground v.1.13,2013-05-12 04:13:00,
2013-05-12 00:14:00,52.8,48.7,30.02,WNW,301,0.0,0.0,86,0.00,,,0.00,Wunderground v.1.13,2013-05-12 04:14:00,
2013-05-12 00:20:00,52.5,48.4,30.02,WNW,301,0.0,0.0,86,0.00,,,0.00,Wunderground v.1.13,2013-05-12 04:20:00,
2013-05-12 00:25:00,52.3,48.5,30.02,WNW,301,0.0,0.0,87,0.00,,,0.00,Wunderground v.1.13,2013-05-12 04:25:00,
2013-05-12 00:31:00,51.9,48.2,30.02,WNW,301,0.0,0.0,87,0.00,,,0.00,Wunderground v.1.13,2013-05-12 04:31:00,
2013-05-12 00:37:00,51.6,48.2,30.02,WNW,301,0.0,0.0,88,0.00,,,0.00,Wunderground v.1.13,2013-05-12 04:37:00,
2013-05-12 00:43:00,51.5,48.1,30.02,WNW,301,0.0,0.0,88,0.00,,,0.00,Wunderground v.1.13,2013-05-12 04:43:00,
2013-05-12 00:48:00,51.4,48.0,30.02,WNW,301,0.0,0.0,88,0.00,,,0.00,Wunderground v.1.13,2013-05-12 04:48:00,
2013-05-12 00:54:00,51.2,48.1,30.02,WNW,301,0.0,0.0,89,0.00,,,0.00,Wunderground v.1.13,2013-05-12 04:54:00,
2013-05-12 00:59:00,51.1,48.0,30.02,WNW,301,0.0,0.0,89,0.00,,,0.00,Wunderground v.1.13,2013-05-12 04:59:00,
2013-05-12 01:05:00,50.9,47.8,30.02,WNW,301,0.0,0.0,89,0.00,,,0.00,Wunderground v.1.13,2013-05-12 05:05:00,
2013-05-12 01:10:00,50.8,47.7,30.03,WNW,301,0.0,0.0,89,0.00,,,0.00,Wunderground v.1.13,2013-05-12 05:10:00,
2013-05-12 01:15:00,50.5,47.4,30.02,WNW,301,0.0,0.0,89,0.00,,,0.00,Wunderground v.1.13,2013-05-12 05:15:00,
2013-05-12 01:21:00,50.3,47.2,30.03,WNW,301,0.0,0.0,89,0.00,,,0.00,Wunderground v.1.13,2013-05-12 05:21:00,
2013-05-12 01:27:00,50.1,47.0,30.02,WNW,301,0.0,0.0,89,0.00,,,0.00,Wunderground v.1.13,2013-05-12 05:27:00,
2013-05-12 01:32:00,50.0,46.9,30.02,WNW,301,0.0,0.0,89,0.00,,,0.00,Wunderground v.1.13,2013-05-12 05:32:00,
2013-05-12 01:37:00,49.8,46.7,30.02,WNW,301,0.0,0.0,89,0.00,,,0.00,Wunderground v.1.13,2013-05-12 05:37:00,
2013-05-12 01:43:00,49.6,46.8,30.02,WNW,301,0.0,0.0,90,0.00,,,0.00,Wunderground v.1.13,2013-05-12 05:43:00,
2013-05-12 01:48:00,49.4,46.6,30.02,WNW,301,0.0,0.0,90,0.00,,,0.00,Wunderground v.1.13,2013-05-12 05:48:00,
2013-05-12 01:54:00,49.2,46.4,30.03,WNW,301,0.0,0.0,90,0.00,,,0.00,Wunderground v.1.13,2013-05-12 05:54:00,
2013-05-12 02:00:00,49.1,46.3,30.02,WNW,301,0.0,0.0,90,0.00,,,0.00,Wunderground v.1.13,2013-05-12 06:00:00,
2013-05-12 02:05:00,49.0,46.2,30.02,WNW,301,0.0,0.0,90,0.00,,,0.00,Wunderground v.1.13,2013-05-12 06:05:00,
2013-05-12 02:11:00,49.1,46.6,30.02,WNW,301,0.0,0.0,91,0.00,,,0.00,Wunderground v.1.13,2013-05-12 06:11:00,
2013-05-12 02:17:00,49.1,46.6,30.02,WNW,301,0.0,0.0,91,0.00,,,0.00,Wunderground v.1.13,2013-05-12 06:17:00,
2013-05-12 02:22:00,49.0,46.5,30.02,WNW,301,0.0,0.0,91,0.00,,,0.00,Wunderground v.1.13,2013-05-12 06:22:00,
2013-05-12 02:28:00,49.1,46.9,30.02,WNW,301,0.0,0.0,92,0.00,,,0.00,Wunderground v.1.13,2013-05-12 06:28:00,
2013-05-12 02:33:00,49.1,46.9,30.02,WNW,301,0.0,0.0,92,0.00,,,0.00,Wunderground v.1.13,2013-05-12 06:33:00,
2013-05-12 02:38:00,49.4,47.2,30.02,WNW,301,0.0,0.0,92,0.00,,,0.00,Wunderground v.1.13,2013-05-12 06:38:00,
2013-05-12 02:44:00,49.6,47.4,30.02,WNW,301,0.0,0.0,92,0.00,,,0.00,Wunderground v.1.13,2013-05-12 06:44:00,
2013-05-12 02:50:00,49.8,47.9,30.02,WNW,301,0.0,0.0,93,0.00,,,0.00,Wunderground v.1.13,2013-05-12 06:50:00,
2013-05-12 02:55:00,50.0,48.1,30.02,WNW,301,0.0,0.0,93,0.00,,,0.00,Wunderground v.1.13,2013-05-12 06:55:00,
2013-05-12 03:01:00,50.1,48.2,30.02,WNW,301,0.0,0.0,93,0.00,,,0.00,Wunderground v.1.13,2013-05-12 07:01:00,
2013-05-12 03:07:00,50.3,48.4,30.02,WNW,301,0.0,0.0,93,0.00,,,0.00,Wunderground v.1.13,2013-05-12 07:07:00,
2013-05-12 03:12:00,50.4,48.5,30.02,WNW,301,0.0,0.0,93,0.00,,,0.00,Wunderground v.1.13,2013-05-12 07:12:00,
2013-05-12 03:18:00,50.5,48.6,30.01,WNW,301,0.0,0.0,93,0.00,,,0.00,Wunderground v.1.13,2013-05-12 07:18:00,
2013-05-12 03:24:00,50.8,49.1,30.01,WNW,301,0.0,0.0,94,0.00,,,0.00,Wunderground v.1.13,2013-05-12 07:24:00,
2013-05-12 03:29:00,50.9,49.2,30.01,WNW,301,0.0,0.0,94,0.00,,,0.00,Wunderground v.1.13,2013-05-12 07:29:00,
2013-05-12 03:34:00,51.0,49.3,30.01,WNW,301,0.0,0.0,94,0.00,,,0.00,Wunderground v.1.13,2013-05-12 07:34:00,
2013-05-12 03:40:00,51.1,49.4,30.01,WNW,301,0.0,0.0,94,0.00,,,0.00,Wunderground v.1.13,2013-05-12 07:40:00,
2013-05-12 03:45:00,51.2,49.5,30.01,WNW,301,0.0,0.0,94,0.00,,,0.00,Wunderground v.1.13,2013-05-12 07:45:00,
2013-05-12 03:51:00,51.4,49.7,30.01,WNW,301,0.0,0.0,94,0.00,,,0.00,Wunderground v.1.13,2013-05-12 07:51:00,
2013-05-12 03:56:00,51.5,49.8,30.01,WNW,301,0.0,3.0,94,0.00,,,0.00,Wunderground v.1.13,2013-05-12 07:56:00,
2013-05-12 04:02:00,51.8,50.1,30.01,WNW,301,0.0,0.0,94,0.00,,,0.00,Wunderground v.1.13,2013-05-12 08:02:00,
2013-05-12 04:08:00,52.0,50.3,30.01,WNW,301,0.0,0.0,94,0.00,,,0.00,Wunderground v.1.13,2013-05-12 08:08:00,
2013-05-12 04:14:00,52.2,50.5,30.01,WNW,301,0.0,0.0,94,0.00,,,0.00,Wunderground v.1.13,2013-05-12 08:14:00,
2013-05-12 04:19:00,52.4,50.7,30.01,WNW,300,1.0,4.0,94,0.00,,,0.00,Wunderground v.1.13,2013-05-12 08:19:00,
2013-05-12 04:25:00,52.6,50.9,30.01,WNW,300,1.0,3.0,94,0.00,,,0.00,Wunderground v.1.13,2013-05-12 08:25:00,
2013-05-12 04:30:00,52.7,51.0,30.01,WNW,300,1.0,1.0,94,0.00,,,0.00,Wunderground v.1.13,2013-05-12 08:30:00,
2013-05-12 04:36:00,52.8,51.1,30.01,WNW,300,1.0,2.0,94,0.00,,,0.00,Wunderground v.1.13,2013-05-12 08:36:00,
2013-05-12 04:42:00,53.0,51.3,30.02,WNW,300,1.0,3.0,94,0.00,,,0.00,Wunderground v.1.13,2013-05-12 08:42:00,
2013-05-12 04:47:00,53.2,51.5,30.02,WNW,296,3.0,9.0,94,0.00,,,0.00,Wunderground v.1.13,2013-05-12 08:47:00,
2013-05-12 04:53:00,53.4,51.4,30.02,WNW,299,6.0,7.0,93,0.00,,,0.00,Wunderground v.1.13,2013-05-12 08:53:00,
2013-05-12 04:59:00,53.7,51.4,30.02,WNW,299,5.0,7.0,92,0.00,,,0.00,Wunderground v.1.13,2013-05-12 08:59:00,
2013-05-12 05:04:00,53.8,51.2,30.02,WNW,302,4.0,6.0,91,0.00,,,0.00,Wunderground v.1.13,2013-05-12 09:04:00,
2013-05-12 05:09:00,53.9,51.0,30.02,NNW,327,4.0,7.0,90,0.00,,,0.00,Wunderground v.1.13,2013-05-12 09:09:00,
2013-05-12 05:15:00,53.7,49.9,30.02,North,355,4.0,6.0,87,0.00,,,0.00,Wunderground v.1.13,2013-05-12 09:15:00,
2013-05-12 05:20:00,53.6,48.9,30.02,NNW,335,4.0,4.0,84,0.00,,,0.00,Wunderground v.1.13,2013-05-12 09:20:00,
2013-05-12 05:26:00,53.6,48.2,30.02,NW,321,3.0,8.0,82,0.00,,,0.00,Wunderground v.1.13,2013-05-12 09:26:00,
2013-05-12 05:32:00,53.4,47.7,30.02,North,355,2.0,3.0,81,0.00,,,0.00,Wunderground v.1.13,2013-05-12 09:32:00,
2013-05-12 05:38:00,53.3,47.3,30.02,North,355,2.0,2.0,80,0.00,,,0.00,Wunderground v.1.13,2013-05-12 09:38:00,
2013-05-12 05:43:00,53.1,46.8,30.02,NW,315,1.0,4.0,79,0.00,,,0.00,Wunderground v.1.13,2013-05-12 09:43:00,
2013-05-12 05:49:00,52.9,46.9,30.02,NW,313,2.0,4.0,80,0.00,,,0.00,Wunderground v.1.13,2013-05-12 09:49:00,
2013-05-12 05:54:00,52.7,46.7,30.03,NW,304,3.0,6.0,80,0.00,,,0.00,Wunderground v.1.13,2013-05-12 09:54:00,
2013-05-12 06:00:00,52.5,46.5,30.03,WNW,302,4.0,4.0,80,0.00,,,0.00,Wunderground v.1.13,2013-05-12 10:00:00,
2013-05-12 06:05:00,52.3,46.3,30.03,NW,307,3.0,4.0,80,0.00,,,0.00,Wunderground v.1.13,2013-05-12 10:05:00,
2013-05-12 06:10:00,52.2,46.2,30.03,NW,307,2.0,3.0,80,0.00,,,0.00,Wunderground v.1.13,2013-05-12 10:10:00,
2013-05-12 06:16:00,52.1,46.4,30.03,NW,307,1.0,2.0,81,0.00,,,0.00,Wunderground v.1.13,2013-05-12 10:16:00,
2013-05-12 06:22:00,52.0,46.3,30.04,NW,307,1.0,2.0,81,0.00,,,0.00,Wunderground v.1.13,2013-05-12 10:22:00,
2013-05-12 06:27:00,51.9,46.6,30.04,NW,305,2.0,4.0,82,0.00,,,0.00,Wunderground v.1.13,2013-05-12 10:27:00,
2013-05-12 06:32:00,51.8,46.5,30.04,WNW,295,4.0,8.0,82,0.00,,,0.00,Wunderground v.1.13,2013-05-12 10:32:00,
2013-05-12 06:38:00,51.6,46.3,30.04,WNW,294,5.0,5.0,82,0.00,,,0.00,Wunderground v.1.13,2013-05-12 10:38:00,
2013-05-12 06:43:00,51.4,46.4,30.05,WNW,294,4.0,5.0,83,0.00,,,0.00,Wunderground v.1.13,2013-05-12 10:43:00,
2013-05-12 06:49:00,51.1,45.8,30.05,WNW,291,5.0,7.0,82,0.00,,,0.00,Wunderground v.1.13,2013-05-12 10:49:00,
2013-05-12 06:54:00,50.9,45.6,30.05,WNW,299,6.0,6.0,82,0.00,,,0.00,Wunderground v.1.13,2013-05-12 10:54:00,
2013-05-12 07:00:00,50.7,45.4,30.06,WNW,298,4.0,4.0,82,0.00,,,0.00,Wunderground v.1.13,2013-05-12 11:00:00,
2013-05-12 07:05:00,50.5,45.2,30.06,WNW,298,3.0,3.0,82,0.00,,,0.00,Wunderground v.1.13,2013-05-12 11:05:00,
2013-05-12 07:11:00,50.2,44.9,30.06,WNW,298,3.0,4.0,82,0.00,,,0.00,Wunderground v.1.13,2013-05-12 11:11:00,
2013-05-12 07:16:00,50.0,44.7,30.07,WNW,298,3.0,4.0,82,0.00,,,0.00,Wunderground v.1.13,2013-05-12 11:16:00,
2013-05-12 07:22:00,49.9,44.6,30.07,WNW,300,4.0,9.0,82,0.00,,,0.00,Wunderground v.1.13,2013-05-12 11:22:00,
2013-05-12 07:27:00,49.8,44.2,30.07,WNW,295,6.0,12.0,81,0.00,,,0.00,Wunderground v.1.13,2013-05-12 11:27:00,
2013-05-12 07:32:00,50.0,44.1,30.07,NW,310,8.0,8.0,80,0.00,,,0.00,Wunderground v.1.13,2013-05-12 11:32:00,
2013-05-12 07:38:00,50.2,44.3,30.07,WNW,295,7.0,8.0,80,0.00,,,0.00,Wunderground v.1.13,2013-05-12 11:38:00,
2013-05-12 07:43:00,50.3,43.7,30.08,NW,306,8.0,11.0,78,0.00,,,0.00,Wunderground v.1.13,2013-05-12 11:43:00,
2013-05-12 07:49:00,50.5,43.6,30.08,WNW,299,9.0,11.0,77,0.00,,,0.00,Wunderground v.1.13,2013-05-12 11:49:00,
2013-05-12 07:55:00,50.6,43.3,30.08,WNW,295,8.0,9.0,76,0.00,,,0.00,Wunderground v.1.13,2013-05-12 11:55:00,
2013-05-12 08:00:00,50.8,43.2,30.08,NW,304,7.0,7.0,75,0.00,,,0.00,Wunderground v.1.13,2013-05-12 12:00:00,
2013-05-12 08:06:00,50.9,43.3,30.08,NW,304,7.0,9.0,75,0.00,,,0.00,Wunderground v.1.13,2013-05-12 12:06:00,
2013-05-12 08:12:00,51.0,43.0,30.08,NNW,338,7.0,9.0,74,0.00,,,0.00,Wunderground v.1.13,2013-05-12 12:12:00,
2013-05-12 08:17:00,51.1,43.1,30.09,NW,321,8.0,10.0,74,0.00,,,0.00,Wunderground v.1.13,2013-05-12 12:17:00,
2013-05-12 08:23:00,51.1,43.1,30.09,NW,318,9.0,13.0,74,0.00,,,0.00,Wunderground v.1.13,2013-05-12 12:23:00,
2013-05-12 08:28:00,51.2,43.5,30.09,NW,309,9.0,11.0,75,0.00,,,0.00,Wunderground v.1.13,2013-05-12 12:28:00,
2013-05-12 08:34:00,51.4,43.7,30.09,NW,304,9.0,11.0,75,0.00,,,0.00,Wunderground v.1.13,2013-05-12 12:34:00,
2013-05-12 08:39:00,51.5,43.8,30.09,NW,313,9.0,12.0,75,0.00,,,0.00,Wunderground v.1.13,2013-05-12 12:39:00,
2013-05-12 08:45:00,51.8,43.8,30.09,WNW,297,9.0,13.0,74,0.00,,,0.00,Wunderground v.1.13,2013-05-12 12:45:00,
2013-05-12 08:50:00,52.0,43.6,30.09,NNW,335,9.0,9.0,73,0.00,,,0.00,Wunderground v.1.13,2013-05-12 12:50:00,
2013-05-12 08:56:00,52.2,43.8,30.09,North,355,8.0,9.0,73,0.00,,,0.00,Wunderground v.1.13,2013-05-12 12:56:00,
2013-05-12 09:01:00,52.5,43.7,30.09,NW,324,8.0,11.0,72,0.00,,,0.00,Wunderground v.1.13,2013-05-12 13:01:00,
2013-05-12 09:07:00,52.7,43.6,30.10,NW,323,8.0,8.0,71,0.00,,,0.00,Wunderground v.1.13,2013-05-12 13:07:00,
2013-05-12 09:13:00,53.0,43.5,30.10,NNE,15,7.0,15.0,70,0.00,,,0.00,Wunderground v.1.13,2013-05-12 13:13:00,
2013-05-12 09:19:00,53.3,43.8,30.10,NW,304,7.0,11.0,70,0.00,,,0.00,Wunderground v.1.13,2013-05-12 13:19:00,
2013-05-12 09:24:00,53.1,43.6,30.10,NNW,327,8.0,10.0,70,0.00,,,0.00,Wunderground v.1.13,2013-05-12 13:24:00,
2013-05-12 09:30:00,53.5,43.6,30.10,NNW,331,6.0,6.0,69,0.00,,,0.00,Wunderground v.1.13,2013-05-12 13:30:00,
2013-05-12 09:36:00,54.0,43.3,30.10,WNW,299,6.0,11.0,67,0.00,,,0.00,Wunderground v.1.13,2013-05-12 13:36:00,
2013-05-12 09:41:00,53.8,41.9,30.10,North,355,8.0,8.0,64,0.00,,,0.00,Wunderground v.1.13,2013-05-12 13:41:00,
2013-05-12 09:47:00,54.4,42.5,30.10,North,349,6.0,10.0,64,0.00,,,0.00,Wunderground v.1.13,2013-05-12 13:47:00,
2013-05-12 09:53:00,54.6,42.7,30.10,NNW,331,5.0,7.0,64,0.00,,,0.00,Wunderground v.1.13,2013-05-12 13:53:00,
2013-05-12 09:58:00,55.2,42.8,30.10,WNW,289,4.0,7.0,63,0.00,,,0.00,Wunderground v.1.13,2013-05-12 13:58:00,
2013-05-12 10:03:00,55.1,41.0,30.10,WNW,298,6.0,9.0,59,0.00,,,0.00,Wunderground v.1.13,2013-05-12 14:03:00,
2013-05-12 10:09:00,55.0,41.4,30.11,NW,312,5.0,7.0,60,0.00,,,0.00,Wunderground v.1.13,2013-05-12 14:09:00,
2013-05-12 10:14:00,55.5,41.4,30.11,WNW,297,4.0,12.0,59,0.00,,,0.00,Wunderground v.1.13,2013-05-12 14:14:00,
2013-05-12 10:20:00,55.9,41.3,30.11,NW,316,7.0,7.0,58,0.00,,,0.00,Wunderground v.1.13,2013-05-12 14:20:00,
2013-05-12 10:25:00,55.8,40.8,30.11,NNW,340,7.0,7.0,57,0.00,,,0.00,Wunderground v.1.13,2013-05-12 14:25:00,
2013-05-12 10:31:00,55.1,40.6,30.11,WNW,300,7.0,7.0,58,0.00,,,0.00,Wunderground v.1.13,2013-05-12 14:31:00,
2013-05-12 10:37:00,54.6,40.6,30.11,WNW,302,6.0,7.0,59,0.00,,,0.00,Wunderground v.1.13,2013-05-12 14:37:00,
2013-05-12 10:43:00,54.6,40.6,30.11,NNW,332,6.0,7.0,59,0.00,,,0.00,Wunderground v.1.13,2013-05-12 14:43:00,
2013-05-12 10:48:00,54.2,40.2,30.11,NW,309,6.0,11.0,59,0.00,,,0.00,Wunderground v.1.13,2013-05-12 14:48:00,
2013-05-12 10:54:00,54.3,41.1,30.11,WNW,300,7.0,10.0,61,0.00,,,0.00,Wunderground v.1.13,2013-05-12 14:54:00,
2013-05-12 10:59:00,55.1,41.0,30.11,NW,317,5.0,7.0,59,0.00,,,0.00,Wunderground v.1.13,2013-05-12 14:59:00,
2013-05-12 11:04:00,55.7,40.7,30.12,WNW,300,5.0,13.0,57,0.00,,,0.00,Wunderground v.1.13,2013-05-12 15:04:00,
2013-05-12 11:10:00,55.8,41.7,30.12,West,274,6.0,7.0,59,0.00,,,0.00,Wunderground v.1.13,2013-05-12 15:10:00,
2013-05-12 11:16:00,56.0,41.0,30.12,West,268,7.0,8.0,57,0.00,,,0.00,Wunderground v.1.13,2013-05-12 15:16:00,
2013-05-12 11:21:00,55.7,41.1,30.12,West,264,7.0,7.0,58,0.00,,,0.00,Wunderground v.1.13,2013-05-12 15:21:00,
2013-05-12 11:27:00,56.6,40.1,30.12,West,281,5.0,7.0,54,0.00,,,0.00,Wunderground v.1.13,2013-05-12 15:27:00,
2013-05-12 11:32:00,56.8,40.3,30.12,WNW,285,6.0,9.0,54,0.00,,,0.00,Wunderground v.1.13,2013-05-12 15:32:00,
2013-05-12 11:37:00,57.0,40.0,30.12,WNW,282,5.0,6.0,53,0.00,,,0.00,Wunderground v.1.13,2013-05-12 15:37:00,
2013-05-12 11:42:00,57.2,40.7,30.13,NW,321,6.0,11.0,54,0.00,,,0.00,Wunderground v.1.13,2013-05-12 15:42:00,
2013-05-12 11:48:00,57.8,40.8,30.12,WNW,289,8.0,12.0,53,0.00,,,0.00,Wunderground v.1.13,2013-05-12 15:48:00,
2013-05-12 11:54:00,59.5,40.8,30.12,West,277,7.0,11.0,50,0.00,,,0.00,Wunderground v.1.13,2013-05-12 15:54:00,
2013-05-12 11:59:00,59.4,40.7,30.13,West,273,7.0,11.0,50,0.00,,,0.00,Wunderground v.1.13,2013-05-12 15:59:00,
2013-05-12 12:04:00,60.3,40.5,30.12,WNW,292,6.0,7.0,48,0.00,,,0.00,Wunderground v.1.13,2013-05-12 16:04:00,
2013-05-12 12:10:00,60.2,41.0,30.12,NW,315,7.0,7.0,49,0.00,,,0.00,Wunderground v.1.13,2013-05-12 16:10:00,
2013-05-12 12:15:00,59.8,41.1,30.13,West,263,9.0,9.0,50,0.00,,,0.00,Wunderground v.1.13,2013-05-12 16:15:00,
2013-05-12 12:21:00,60.1,41.4,30.13,West,279,7.0,10.0,50,0.00,,,0.00,Wunderground v.1.13,2013-05-12 16:21:00,
2013-05-12 12:26:00,60.3,40.0,30.13,WNW,296,7.0,7.0,47,0.00,,,0.00,Wunderground v.1.13,2013-05-12 16:26:00,
2013-05-12 12:31:00,59.8,40.1,30.13,NW,325,7.0,8.0,48,0.00,,,0.00,Wunderground v.1.13,2013-05-12 16:31:00,
2013-05-12 12:37:00,59.0,39.9,30.13,NW,311,8.0,9.0,49,0.00,,,0.00,Wunderground v.1.13,2013-05-12 16:37:00,
2013-05-12 12:42:00,59.5,42.3,30.13,West,267,6.0,9.0,53,0.00,,,0.00,Wunderground v.1.13,2013-05-12 16:42:00,
2013-05-12 12:48:00,60.7,40.9,30.12,West,259,6.0,9.0,48,0.00,,,0.00,Wunderground v.1.13,2013-05-12 16:48:00,
2013-05-12 12:54:00,60.9,40.5,30.13,WNW,301,7.0,11.0,47,0.00,,,0.00,Wunderground v.1.13,2013-05-12 16:54:00,
2013-05-12 12:59:00,60.9,39.4,30.12,West,279,8.0,11.0,45,0.00,,,0.00,Wunderground v.1.13,2013-05-12 16:59:00,
2013-05-12 13:05:00,61.5,39.9,30.12,WNW,282,6.0,6.0,45,0.00,,,0.00,Wunderground v.1.13,2013-05-12 17:05:00,
2013-05-12 13:11:00,62.0,41.0,30.12,West,263,7.0,10.0,46,0.00,,,0.00,Wunderground v.1.13,2013-05-12 17:11:00,
2013-05-12 13:17:00,61.2,39.1,30.12,NW,313,9.0,12.0,44,0.00,,,0.00,Wunderground v.1.13,2013-05-12 17:17:00,
2013-05-12 13:22:00,60.8,39.9,30.12,NW,307,8.0,9.0,46,0.00,,,0.00,Wunderground v.1.13,2013-05-12 17:22:00,
2013-05-12 13:28:00,60.8,38.7,30.12,NW,311,7.0,14.0,44,0.00,,,0.00,Wunderground v.1.13,2013-05-12 17:28:00,
2013-05-12 13:33:00,60.3,38.9,30.12,West,267,8.0,13.0,45,0.00,,,0.00,Wunderground v.1.13,2013-05-12 17:33:00,
2013-05-12 13:38:00,61.0,38.9,30.12,WNW,283,9.0,12.0,44,0.00,,,0.00,Wunderground v.1.13,2013-05-12 17:38:00,
2013-05-12 13:44:00,61.8,39.1,30.12,WNW,289,8.0,12.0,43,0.00,,,0.00,Wunderground v.1.13,2013-05-12 17:44:00,
2013-05-12 13:49:00,62.1,40.5,30.12,WNW,286,7.0,10.0,45,0.00,,,0.00,Wunderground v.1.13,2013-05-12 17:49:00,
2013-05-12 13:55:00,61.5,39.4,30.12,WNW,287,7.0,7.0,44,0.00,,,0.00,Wunderground v.1.13,2013-05-12 17:55:00,
2013-05-12 14:01:00,62.3,40.1,30.12,SW,235,7.0,9.0,44,0.00,,,0.00,Wunderground v.1.13,2013-05-12 18:01:00,
2013-05-12 14:06:00,62.2,39.4,30.12,West,274,8.0,8.0,43,0.00,,,0.00,Wunderground v.1.13,2013-05-12 18:06:00,
2013-05-12 14:11:00,62.5,39.1,30.12,WNW,300,6.0,11.0,42,0.00,,,0.00,Wunderground v.1.13,2013-05-12 18:11:00,
2013-05-12 14:17:00,62.4,37.7,30.12,WNW,297,6.0,10.0,40,0.00,,,0.00,Wunderground v.1.13,2013-05-12 18:17:00,
2013-05-12 14:22:00,62.0,37.4,30.12,NNE,14,7.0,8.0,40,0.00,,,0.00,Wunderground v.1.13,2013-05-12 18:22:00,
2013-05-12 14:28:00,62.0,39.2,30.12,WNW,287,8.0,12.0,43,0.00,,,0.00,Wunderground v.1.13,2013-05-12 18:28:00,
2013-05-12 14:33:00,62.2,38.2,30.12,NW,304,9.0,12.0,41,0.00,,,0.00,Wunderground v.1.13,2013-05-12 18:33:00,
2013-05-12 14:38:00,62.7,38.6,30.11,West,279,7.0,8.0,41,0.00,,,0.00,Wunderground v.1.13,2013-05-12 18:38:00,
2013-05-12 14:44:00,62.6,39.8,30.12,NW,313,7.0,12.0,43,0.00,,,0.00,Wunderground v.1.13,2013-05-12 18:44:00,
2013-05-12 14:50:00,62.2,37.6,30.11,NW,319,9.0,9.0,40,0.00,,,0.00,Wunderground v.1.13,2013-05-12 18:50:00,
2013-05-12 14:55:00,62.1,38.7,30.11,WNW,289,9.0,11.0,42,0.00,,,0.00,Wunderground v.1.13,2013-05-12 18:55:00,
2013-05-12 15:01:00,62.2,38.8,30.11,WNW,302,10.0,13.0,42,0.00,,,0.00,Wunderground v.1.13,2013-05-12 19:01:00,
2013-05-12 15:07:00,62.6,39.8,30.11,WNW,284,8.0,9.0,43,0.00,,,0.00,Wunderground v.1.13,2013-05-12 19:07:00,
2013-05-12 15:12:00,63.2,38.5,30.11,WNW,288,7.0,16.0,40,0.00,,,0.00,Wunderground v.1.13,2013-05-12 19:12:00,
2013-05-12 15:18:00,63.4,38.6,30.11,West,260,9.0,13.0,40,0.00,,,0.00,Wunderground v.1.13,2013-05-12 19:18:00,
2013-05-12 15:23:00,63.0,37.0,30.11,WNW,295,9.0,13.0,38,0.00,,,0.00,Wunderground v.1.13,2013-05-12 19:23:00,
2013-05-12 15:29:00,62.8,36.8,30.11,WNW,294,7.0,14.0,38,0.00,,,0.00,Wunderground v.1.13,2013-05-12 19:29:00,
2013-05-12 15:34:00,62.7,37.4,30.10,NNW,338,7.0,11.0,39,0.00,,,0.00,Wunderground v.1.13,2013-05-12 19:34:00,
2013-05-12 15:40:00,62.7,37.4,30.10,WNW,300,8.0,10.0,39,0.00,,,0.00,Wunderground v.1.13,2013-05-12 19:40:00,
2013-05-12 15:45:00,62.9,36.2,30.10,WNW,285,8.0,8.0,37,0.00,,,0.00,Wunderground v.1.13,2013-05-12 19:45:00,
2013-05-12 15:51:00,63.1,37.1,30.10,WNW,298,7.0,12.0,38,0.00,,,0.00,Wunderground v.1.13,2013-05-12 19:51:00,
2013-05-12 15:56:00,62.8,36.1,30.10,NW,314,8.0,9.0,37,0.00,,,0.00,Wunderground v.1.13,2013-05-12 19:56:00,
2013-05-12 16:02:00,63.1,35.7,30.09,WNW,302,6.0,7.0,36,0.00,,,0.00,Wunderground v.1.13,2013-05-12 20:02:00,
2013-05-12 16:08:00,63.1,35.7,30.09,WNW,291,6.0,10.0,36,0.00,,,0.00,Wunderground v.1.13,2013-05-12 20:08:00,
2013-05-12 16:14:00,63.0,34.2,30.09,WNW,293,9.0,15.0,34,0.00,,,0.00,Wunderground v.1.13,2013-05-12 20:14:00,
2013-05-12 16:19:00,63.5,36.7,30.09,West,275,9.0,10.0,37,0.00,,,0.00,Wunderground v.1.13,2013-05-12 20:19:00,
2013-05-12 16:25:00,63.8,37.7,30.09,West,276,7.0,7.0,38,0.00,,,0.00,Wunderground v.1.13,2013-05-12 20:25:00,
2013-05-12 16:31:00,63.8,37.0,30.09,West,267,8.0,10.0,37,0.00,,,0.00,Wunderground v.1.13,2013-05-12 20:31:00,
2013-05-12 16:36:00,63.8,36.3,30.09,WNW,298,8.0,11.0,36,0.00,,,0.00,Wunderground v.1.13,2013-05-12 20:36:00,
2013-05-12 16:42:00,63.2,35.1,30.09,West,275,8.0,8.0,35,0.00,,,0.00,Wunderground v.1.13,2013-05-12 20:42:00,
2013-05-12 16:48:00,63.1,33.5,30.09,NW,315,7.0,12.0,33,0.00,,,0.00,Wunderground v.1.13,2013-05-12 20:48:00,
2013-05-12 16:53:00,62.8,35.4,30.08,WSW,252,9.0,10.0,36,0.00,,,0.00,Wunderground v.1.13,2013-05-12 20:53:00,
2013-05-12 16:59:00,62.9,34.1,30.09,NW,319,7.0,11.0,34,0.00,,,0.00,Wunderground v.1.13,2013-05-12 20:59:00,
2013-05-12 17:04:00,62.7,32.4,30.08,NW,307,6.0,9.0,32,0.00,,,0.00,Wunderground v.1.13,2013-05-12 21:04:00,
2013-05-12 17:10:00,62.8,33.2,30.09,NW,313,7.0,10.0,33,0.00,,,0.00,Wunderground v.1.13,2013-05-12 21:10:00,
2013-05-12 17:15:00,62.8,34.0,30.09,West,269,7.0,7.0,34,0.00,,,0.00,Wunderground v.1.13,2013-05-12 21:15:00,
2013-05-12 17:21:00,63.0,34.2,30.09,West,278,7.0,7.0,34,0.00,,,0.00,Wunderground v.1.13,2013-05-12 21:21:00,
2013-05-12 17:26:00,63.3,33.7,30.09,WNW,286,7.0,7.0,33,0.00,,,0.00,Wunderground v.1.13,2013-05-12 21:26:00,
2013-05-12 17:32:00,63.4,34.5,30.09,West,271,7.0,7.0,34,0.00,,,0.00,Wunderground v.1.13,2013-05-12 21:32:00,
2013-05-12 17:38:00,63.5,34.6,30.10,West,279,7.0,11.0,34,0.00,,,0.00,Wunderground v.1.13,2013-05-12 21:38:00,
2013-05-12 17:43:00,63.3,35.9,30.10,WNW,284,8.0,11.0,36,0.00,,,0.00,Wunderground v.1.13,2013-05-12 21:43:00,
2013-05-12 17:49:00,63.2,32.8,30.10,WNW,283,10.0,13.0,32,0.00,,,0.00,Wunderground v.1.13,2013-05-12 21:49:00,
2013-05-12 17:55:00,63.0,34.2,30.10,WNW,300,8.0,8.0,34,0.00,,,0.00,Wunderground v.1.13,2013-05-12 21:55:00,
2013-05-12 18:00:00,63.1,33.5,30.10,West,278,7.0,7.0,33,0.00,,,0.00,Wunderground v.1.13,2013-05-12 22:00:00,
2013-05-12 18:05:00,63.2,33.6,30.10,NW,309,8.0,10.0,33,0.00,,,0.00,Wunderground v.1.13,2013-05-12 22:05:00,
2013-05-12 18:11:00,62.6,32.3,30.10,NW,322,9.0,12.0,32,0.00,,,0.00,Wunderground v.1.13,2013-05-12 22:11:00,
2013-05-12 18:16:00,62.1,32.6,30.10,NW,308,11.0,11.0,33,0.00,,,0.00,Wunderground v.1.13,2013-05-12 22:16:00,
2013-05-12 18:22:00,62.2,33.5,30.10,WNW,288,9.0,10.0,34,0.00,,,0.00,Wunderground v.1.13,2013-05-12 22:22:00,
2013-05-12 18:28:00,62.3,32.8,30.10,West,280,8.0,10.0,33,0.00,,,0.00,Wunderground v.1.13,2013-05-12 22:28:00,
2013-05-12 18:34:00,62.2,32.0,30.10,WNW,300,7.0,9.0,32,0.00,,,0.00,Wunderground v.1.13,2013-05-12 22:34:00,
2013-05-12 18:39:00,61.9,33.2,30.10,WNW,292,8.0,14.0,34,0.00,,,0.00,Wunderground v.1.13,2013-05-12 22:39:00,
2013-05-12 18:45:00,61.9,33.2,30.10,NW,313,7.0,10.0,34,0.00,,,0.00,Wunderground v.1.13,2013-05-12 22:45:00,
2013-05-12 18:50:00,61.8,32.4,30.11,NNW,342,7.0,9.0,33,0.00,,,0.00,Wunderground v.1.13,2013-05-12 22:50:00,
2013-05-12 18:56:00,61.6,33.7,30.11,NW,308,7.0,9.0,35,0.00,,,0.00,Wunderground v.1.13,2013-05-12 22:56:00,
2013-05-12 19:02:00,61.4,32.8,30.11,NW,312,8.0,10.0,34,0.00,,,0.00,Wunderground v.1.13,2013-05-12 23:02:00,
2013-05-12 19:08:00,61.0,32.4,30.11,NW,314,9.0,10.0,34,0.00,,,0.00,Wunderground v.1.13,2013-05-12 23:08:00,
2013-05-12 19:13:00,60.9,33.0,30.11,NNW,338,7.0,10.0,35,0.00,,,0.00,Wunderground v.1.13,2013-05-12 23:13:00,
2013-05-12 19:19:00,60.7,32.9,30.11,WNW,297,7.0,10.0,35,0.00,,,0.00,Wunderground v.1.13,2013-05-12 23:19:00,
2013-05-12 19:24:00,60.5,32.7,30.11,NNW,329,7.0,10.0,35,0.00,,,0.00,Wunderground v.1.13,2013-05-12 23:24:00,
2013-05-12 19:30:00,60.4,33.3,30.11,NW,313,6.0,6.0,36,0.00,,,0.00,Wunderground v.1.13,2013-05-12 23:30:00,
2013-05-12 19:36:00,60.1,33.0,30.11,WNW,296,7.0,10.0,36,0.00,,,0.00,Wunderground v.1.13,2013-05-12 23:36:00,
2013-05-12 19:41:00,59.7,32.7,30.11,NW,311,9.0,9.0,36,0.00,,,0.00,Wunderground v.1.13,2013-05-12 23:41:00,
2013-05-12 19:47:00,59.4,33.8,30.11,NNW,330,6.0,7.0,38,0.00,,,0.00,Wunderground v.1.13,2013-05-12 23:47:00,
2013-05-12 19:53:00,59.0,32.7,30.12,North,355,5.0,5.0,37,0.00,,,0.00,Wunderground v.1.13,2013-05-12 23:53:00,
2013-05-12 19:58:00,59.0,32.7,30.12,NNW,344,5.0,9.0,37,0.00,,,0.00,Wunderground v.1.13,2013-05-12 23:58:00,
2013-05-12 20:04:00,58.8,33.2,30.11,NNW,342,4.0,6.0,38,0.00,,,0.00,Wunderground v.1.13,2013-05-13 00:04:00,
2013-05-12 20:10:00,58.4,32.9,30.11,NNW,332,4.0,4.0,38,0.00,,,0.00,Wunderground v.1.13,2013-05-13 00:10:00,
2013-05-12 20:16:00,58.0,32.5,30.12,NNW,342,4.0,6.0,38,0.00,,,0.00,Wunderground v.1.13,2013-05-13 00:16:00,
2013-05-12 20:21:00,57.5,33.3,30.12,NNW,338,4.0,4.0,40,0.00,,,0.00,Wunderground v.1.13,2013-05-13 00:21:00,
2013-05-12 20:27:00,57.0,33.5,30.12,NNW,340,3.0,4.0,41,0.00,,,0.00,Wunderground v.1.13,2013-05-13 00:27:00,
2013-05-12 20:32:00,56.6,33.2,30.12,NNW,340,2.0,3.0,41,0.00,,,0.00,Wunderground v.1.13,2013-05-13 00:32:00,
2013-05-12 20:37:00,56.2,33.4,30.12,NNW,341,2.0,2.0,42,0.00,,,0.00,Wunderground v.1.13,2013-05-13 00:37:00,
2013-05-12 20:43:00,55.9,33.7,30.12,NNW,335,2.0,4.0,43,0.00,,,0.00,Wunderground v.1.13,2013-05-13 00:43:00,
2013-05-12 20:48:00,55.5,33.3,30.13,NW,324,2.0,5.0,43,0.00,,,0.00,Wunderground v.1.13,2013-05-13 00:48:00,
2013-05-12 20:54:00,55.3,33.7,30.13,NW,325,2.0,4.0,44,0.00,,,0.00,Wunderground v.1.13,2013-05-13 00:54:00,
2013-05-12 20:59:00,55.0,34.0,30.13,NNW,331,1.0,3.0,45,0.00,,,0.00,Wunderground v.1.13,2013-05-13 00:59:00,
2013-05-12 21:05:00,54.7,33.8,30.13,NNW,336,2.0,3.0,45,0.00,,,0.00,Wunderground v.1.13,2013-05-13 01:05:00,
2013-05-12 21:10:00,54.5,33.6,30.13,NNW,338,3.0,5.0,45,0.00,,,0.00,Wunderground v.1.13,2013-05-13 01:10:00,
2013-05-12 21:15:00,54.4,33.5,30.13,NNW,340,4.0,4.0,45,0.00,,,0.00,Wunderground v.1.13,2013-05-13 01:15:00,
2013-05-12 21:21:00,54.2,33.3,30.13,NNW,340,2.0,3.0,45,0.00,,,0.00,Wunderground v.1.13,2013-05-13 01:21:00,
2013-05-12 21:26:00,54.1,33.8,30.14,NNW,340,1.0,3.0,46,0.00,,,0.00,Wunderground v.1.13,2013-05-13 01:26:00,
2013-05-12 21:31:00,54.0,33.7,30.14,NNW,340,1.0,3.0,46,0.00,,,0.00,Wunderground v.1.13,2013-05-13 01:31:00,
2013-05-12 21:37:00,53.7,33.4,30.15,NNW,340,0.0,1.0,46,0.00,,,0.00,Wunderground v.1.13,2013-05-13 01:37:00,
2013-05-12 21:42:00,53.6,33.8,30.15,NNW,340,0.0,0.0,47,0.00,,,0.00,Wunderground v.1.13,2013-05-13 01:42:00,
2013-05-12 21:48:00,53.4,33.7,30.15,NNW,340,0.0,0.0,47,0.00,,,0.00,Wunderground v.1.13,2013-05-13 01:48:00,
2013-05-12 21:53:00,53.2,35.5,30.15,NNW,340,0.0,0.0,51,0.00,,,0.00,Wunderground v.1.13,2013-05-13 01:53:00,
2013-05-12 21:59:00,52.7,36.5,30.15,NNW,340,0.0,0.0,54,0.00,,,0.00,Wunderground v.1.13,2013-05-13 01:59:00,
2013-05-12 22:05:00,51.8,37.5,30.16,NNW,340,0.0,0.0,58,0.00,,,0.00,Wunderground v.1.13,2013-05-13 02:05:00,
2013-05-12 22:11:00,51.0,37.2,30.16,NNW,340,0.0,0.0,59,0.00,,,0.00,Wunderground v.1.13,2013-05-13 02:11:00,
2013-05-12 22:16:00,50.3,36.5,30.16,NNW,340,0.0,0.0,59,0.00,,,0.00,Wunderground v.1.13,2013-05-13 02:16:00,
2013-05-12 22:22:00,49.5,37.0,30.16,NNW,340,0.0,0.0,62,0.00,,,0.00,Wunderground v.1.13,2013-05-13 02:22:00,
2013-05-12 22:27:00,48.8,37.2,30.16,NNW,340,0.0,0.0,64,0.00,,,0.00,Wunderground v.1.13,2013-05-13 02:27:00,
2013-05-12 22:32:00,48.2,37.4,30.17,NNW,340,0.0,0.0,66,0.00,,,0.00,Wunderground v.1.13,2013-05-13 02:32:00,
2013-05-12 22:38:00,47.6,37.2,30.17,NNW,340,0.0,0.0,67,0.00,,,0.00,Wunderground v.1.13,2013-05-13 02:38:00,
2013-05-12 22:43:00,47.0,36.6,30.17,NNW,340,0.0,0.0,67,0.00,,,0.00,Wunderground v.1.13,2013-05-13 02:43:00,
2013-05-12 22:49:00,46.4,36.8,30.17,NNW,340,0.0,0.0,69,0.00,,,0.00,Wunderground v.1.13,2013-05-13 02:49:00,
2013-05-12 22:55:00,46.0,36.8,30.17,NNW,340,0.0,0.0,70,0.00,,,0.00,Wunderground v.1.13,2013-05-13 02:55:00,
2013-05-12 23:00:00,45.5,36.6,30.17,NNW,340,0.0,0.0,71,0.00,,,0.00,Wunderground v.1.13,2013-05-13 03:00:00,
2013-05-12 23:05:00,45.0,36.5,30.17,NNW,340,0.0,0.0,72,0.00,,,0.00,Wunderground v.1.13,2013-05-13 03:05:00,
2013-05-12 23:11:00,44.7,36.6,30.17,NNW,340,0.0,0.0,73,0.00,,,0.00,Wunderground v.1.13,2013-05-13 03:11:00,
2013-05-12 23:16:00,44.4,36.6,30.17,NNW,340,0.0,0.0,74,0.00,,,0.00,Wunderground v.1.13,2013-05-13 03:16:00,
2013-05-12 23:22:00,44.1,36.7,30.17,NNW,340,0.0,0.0,75,0.00,,,0.00,Wunderground v.1.13,2013-05-13 03:22:00,
2013-05-12 23:27:00,43.8,36.7,30.17,NNW,340,0.0,0.0,76,0.00,,,0.00,Wunderground v.1.13,2013-05-13 03:27:00,
2013-05-12 23:32:00,43.4,36.3,30.17,NNW,340,0.0,0.0,76,0.00,,,0.00,Wunderground v.1.13,2013-05-13 03:32:00,
2013-05-12 23:38:00,42.9,36.2,30.17,NNW,340,0.0,0.0,77,0.00,,,0.00,Wunderground v.1.13,2013-05-13 03:38:00,
2013-05-12 23:44:00,42.6,36.2,30.18,NNW,340,0.0,0.0,78,0.00,,,0.00,Wunderground v.1.13,2013-05-13 03:44:00,
2013-05-12 23:49:00,42.3,36.3,30.18,NNW,340,0.0,0.0,79,0.00,,,0.00,Wunderground v.1.13,2013-05-13 03:49:00,
2013-05-12 23:55:00,42.0,36.3,30.18,NNW,340,0.0,0.0,80,0.00,,,0.00,Wunderground v.1.13,2013-05-13 03:55:00,